EW6519 Weather Reports


Display with metric or nautical units.
time (UTC)temp
F
wind
direction
speed
MPH
gust
MPH
rain 1hr
in
rain 24hr
in
rain mn
in
humidity
%
barometer
mb
20260506134549 48 297 0.0 5.0 0.00 1.01 0.43 84 1010.9
20260506133046 48 18 0.0 0.0 0.00 1.01 0.43 86 1010.9
20260506131550 47 276 0.0 5.0 0.00 1.01 0.43 88 1010.6
20260506130058 46 288 0.0 4.0 0.00 1.01 0.43 89 1010.2
20260506124551 45 280 1.0 5.0 0.00 1.01 0.43 89 1010.5
20260506123042 45 276 1.0 6.0 0.00 1.01 0.43 90 1010.4
20260506121539 45 307 0.0 4.0 0.00 1.01 0.43 91 1010.1
20260506120037 44 26 0.0 0.0 0.00 1.01 0.43 92 1009.8
20260506114535 44 327 0.0 1.0 0.00 1.02 0.43 93 1009.6
20260506113040 44 294 0.0 4.0 0.00 1.02 0.43 93 1009.0
20260506111531 43 255 0.0 4.0 0.00 1.02 0.43 94 1008.9
20260506110031 43 337 0.0 0.0 0.00 1.02 0.43 94 1008.7
20260506104529 43 328 0.0 8.0 0.00 1.05 0.43 94 1008.3
20260506103033 43 304 0.0 4.0 0.00 1.05 0.43 95 1008.2
20260506101539 43 302 0.0 3.0 0.00 1.05 0.43 95 1007.9
20260506100023 44 336 0.0 4.0 0.00 1.05 0.43 95 1007.4
20260506094525 44 277 0.0 3.0 0.00 1.05 0.43 95 1007.7
20260506093023 44 306 0.0 2.0 0.01 1.05 0.43 96 1007.7
20260506091519 44 321 0.0 3.0 0.01 1.05 0.43 96 1007.6
20260506090017 44 328 2.0 7.0 0.01 1.05 0.43 96 1006.9
20260506084515 44 307 2.0 7.0 0.02 1.05 0.43 96 1006.9
20260506083012 45 284 3.0 7.0 0.01 1.04 0.42 96 1006.8
20260506081510 45 312 5.0 13.0 0.02 1.04 0.42 96 1006.4
20260506073005 46 302 4.0 12.0 0.12 1.03 0.41 97 1006.1
20260506071601 47 353 3.0 8.0 0.15 1.02 0.40 97 1006.2
20260506061547 49 254 4.0 8.0 0.15 0.87 0.25 96 1005.3
20260506044608 58 235 1.0 10.0 0.05 0.67 0.05 97 1004.6
20260506043032 58 250 0.0 7.0 0.05 0.67 0.05 97 1004.8
20260506041528 58 161 0.0 0.0 0.03 0.65 0.03 97 1004.7
20260506040028 58 156 0.0 0.0 0.00 0.62 0.00 97 1004.7
20260506034548 59 146 0.0 0.0 0.01 0.62 0.62 97 1004.8
20260506033024 59 178 0.0 0.0 0.02 0.62 0.62 97 1004.9
20260506031524 59 214 0.0 0.0 0.02 0.62 0.62 97 1005.3
20260506030022 59 101 0.0 0.0 0.04 0.62 0.62 97 1005.4
20260506024522 59 101 0.0 0.0 0.05 0.61 0.61 97 1005.2
20260506023022 59 252 0.0 0.0 0.05 0.60 0.60 96 1006.0
20260506021520 59 252 0.0 0.0 0.07 0.60 0.60 96 1005.9
20260506020020 59 252 0.0 0.0 0.08 0.57 0.57 96 1005.6
20260506014526 59 240 0.0 2.0 0.11 0.56 0.56 96 1005.9
20260506013019 59 225 0.0 0.0 0.10 0.55 0.55 96 1005.8
20260506011518 60 200 0.0 0.0 0.07 0.52 0.52 95 1005.6
20260506010017 60 200 0.0 0.0 0.04 0.49 0.49 95 1005.7
20260506004531 60 166 1.0 6.0 0.01 0.45 0.45 94 1005.1
20260506003029 60 160 1.0 6.0 0.01 0.45 0.45 94 1005.1
20260506001516 60 249 1.0 6.0 0.01 0.45 0.45 94 1005.1
20260506000016 60 193 1.0 5.0 0.01 0.45 0.45 94 1005.0
20260505234525 60 144 1.0 9.0 0.00 0.44 0.44 95 1005.0
20260505233013 61 179 1.0 4.0 0.00 0.44 0.44 95 1005.1
20260505231516 61 213 0.0 6.0 0.00 0.44 0.44 95 1005.5
20260505230013 61 242 0.0 7.0 0.01 0.44 0.44 95 1005.4
20260505224512 61 133 2.0 6.0 0.01 0.44 0.44 95 1005.6
20260505223010 61 196 1.0 10.0 0.01 0.44 0.44 95 1005.8
20260505221512 61 175 0.0 11.0 0.01 0.43 0.43 95 1006.0
20260505220021 61 165 1.0 10.0 0.02 0.43 0.43 95 1006.2
20260505214512 61 198 6.0 12.0 0.04 0.43 0.43 95 1006.3
20260505213008 61 145 3.0 10.0 0.10 0.43 0.43 95 1006.5
20260505211508 61 236 1.0 5.0 0.12 0.42 0.42 95 1006.6
20260505210007 60 127 1.0 8.0 0.17 0.41 0.41 95 1006.6
20260505204507 60 212 2.0 10.0 0.17 0.39 0.39 95 1006.6
20260505203006 61 252 2.0 6.0 0.28 0.33 0.33 94 1006.8
20260505201505 61 243 1.0 11.0 0.26 0.30 0.30 94 1006.7
20260505200004 61 248 1.0 8.0 0.20 0.24 0.24 93 1006.9
20260505194509 62 177 0.0 7.0 0.18 0.22 0.22 90 1006.9
20260505193005 67 213 3.0 12.0 0.01 0.05 0.05 75 1007.0
20260505191501 70 206 3.0 12.0 0.00 0.04 0.04 68 1006.6
20260505190001 70 199 4.0 12.0 0.00 0.04 0.04 67 1006.6
20260505184608 69 218 3.0 14.0 0.00 0.04 0.04 68 1006.6
20260505183059 69 212 0.0 11.0 0.00 0.04 0.04 67 1006.8
20260505181600 69 224 1.0 12.0 0.00 0.04 0.04 67 1007.0
20260505180103 69 117 3.0 13.0 0.00 0.04 0.04 67 1007.3
20260505174612 69 236 3.0 13.0 0.00 0.04 0.04 65 1007.2
20260505173055 69 160 5.0 14.0 0.00 0.04 0.04 65 1007.4
20260505171555 69 252 3.0 19.0 0.00 0.04 0.04 65 1007.5
20260505170129 69 229 2.0 15.0 0.00 0.04 0.04 65 1007.5
20260505164553 69 248 3.0 13.0 0.00 0.04 0.04 64 1007.6
20260505164503 69 215 2.0 13.0 0.00 0.04 0.04 64 1007.4
20260505163052 68 236 5.0 18.0 0.00 0.04 0.04 65 1007.5
20260505161557 68 229 1.0 10.0 0.00 0.04 0.04 65 1007.6
20260505153055 67 245 2.0 13.0 0.00 0.04 0.04 67 1007.5
20260505151549 67 198 5.0 12.0 0.00 0.04 0.04 69 1007.2